SL-24 R/B, 40303

Orbit data source: Space-Track

SL-24 R/B, 40303 is space debris in SSO originally from a launch on Thu, 06 Nov 2014 UTC launched from the Orenburg, Russia (OREN). Debris objects in space refer to the collection of defunct objects orbiting the Earth. Examples of debris include non-operational satellites, rocket bodies, and fragments generated from explosions, collisions, or faulty payload assembly.

Loading next visibility...
Identifier
40303, 2014-070F
Orbit
SSO
Last TLE update
7 hours ago
Origin
Manufacturer
Yuzhnoe
Mission
Spacecraft
Bus & Motor
15A18-BR, Unknown motor
Mass
~1,000 kg wet, ~1,000 kg dry
Launch date (UTC)
2014-11-06 (11 years ago)
Launch vehicle
Unknown
Launch site
Orenburg, Russia (OREN)
Object type
Payload
Rocket body
Debris
Shape & HBR
Cyl, 3 m
Radar Cross Section
10.603 m², Large (>1 m²)

Expand to show TLE details & history

TLE from 7 hours ago
0 SL-24 R/B
1 40303U 14070F   25182.88743960  .00000477  00000-0  11727-3 0  9994
2 40303  97.1347 183.1326 0949055   0.0426   0.0633 13.14942382510589
Epoch: 2025-07-01T21:17Z
TLE epoch observation values (Epoch: 2025-07-01T21:17:54.781Z)
Latitude
0.00001°
Longitude
-56.5221°
Altitude
487.215 km
Speed
7.975 km/s
True Right ascension
12h 12m 31s
True Declination
0° 00' 00"
Sunlit
Object was in daylight at epoch
Visualization orbit readout
Latitude
-36.33611°
Longitude
118.40917°
Altitude
1,765.071 km
Speed
6.739 km/s
Apparent Right ascension
01h 26m 25s
Apparent Declination
-41° 08' 47"
Sunlit
Object is in daylight
Visualization observer readout
Local Sidereal Time
15:35:53
Azimuth
103.468° ESE
Elevation
-65.51°
Doppler factor
1
Orbital elements
Apogee altitude
1,920.628 km
Perigee altitude
481.968 km
Semi-major axis
7,579.435 km
Eccentricity
0.09491
Inclination
97.1347°
RAAN
183.1326°
Arg. of periapsis
0.0426°
True anomaly
Unknown
Mean anomaly
0.0633°
Eccentric anomaly
Unknown
Mean motion
3.28918 °/min
Orbital period
109.45 mins
BSTAR
0.00011727
Loading maneuver chart data...
Loading SW <> Apogee altitude chart data...
Loading historical data...
Loading historical data...
Loading historical data...
Loading historical data...
Loading historical data...
Loading historical data...
Loading historical data...

SL-24 R/B Visibility forecast

Observer location: undefined°, undefined°

Span
Click to sort rows by Start time (UTC) header in descending order
Start Az.
Max El. time (UTC)
Max El. Az.
Max El.
End time (UTC)
End Az.
10 mins2025-07-02 10:41:34.576Z55.679° ENE2025-07-02 10:46:34.576Z88.852° E15.69°2025-07-02 10:51:34.576Z118.497° SE
18 mins2025-07-02 12:27:34.576Z17.931° NNE2025-07-02 12:34:34.576Z80.707° E43.424°2025-07-02 12:45:34.576Z184.436° SSW
14 mins2025-07-02 14:16:34.576Z345.389° N2025-07-02 14:22:34.576Z295.043° NW27.813°2025-07-02 14:30:34.576Z240.698° WSW
5 mins2025-07-02 23:01:34.576Z91.283° ESE2025-07-02 23:03:34.576Z55.777° ENE18.809°2025-07-02 23:06:34.576Z18.019° NNE
6 mins2025-07-03 00:49:34.576Z227.852° WSW2025-07-03 00:51:34.576Z274.607° WNW25.631°2025-07-03 00:55:34.576Z329.091° NNW
|